| time (UTC) | temp F | wind direction | speed knots | gust knots | rain 1hr in | rain 24hr in | rain mn in | humidity % | barometer mb |
| 20260507224600 | 55 | 0.0 | 0.0 | 0.00 | 0.12 | 0.02 | 65 | 1013.1 | |
| 20260507223050 | 55 | 0.0 | 0.0 | 0.00 | 0.12 | 0.02 | 64 | 1012.9 | |
| 20260507221642 | 56 | 0.0 | 0.0 | 0.00 | 0.12 | 0.02 | 65 | 1013.0 | |
| 20260507220101 | 56 | 0.0 | 0.0 | 0.00 | 0.12 | 0.02 | 64 | 1012.8 | |
| 20260507214604 | 54 | 0.0 | 0.0 | 0.00 | 0.12 | 0.02 | 65 | 1012.5 | |
| 20260507213058 | 54 | 0.0 | 0.0 | 0.00 | 0.12 | 0.02 | 67 | 1012.5 | |
| 20260507211555 | 53 | 0.0 | 0.0 | 0.00 | 0.12 | 0.02 | 69 | 1012.4 | |
| 20260507210059 | 54 | 0.0 | 0.0 | 0.00 | 0.12 | 0.02 | 67 | 1012.1 | |
| 20260507204558 | 55 | 0.0 | 0.0 | 0.00 | 0.12 | 0.02 | 65 | 1012.2 | |
| 20260507203100 | 54 | 0.0 | 0.0 | 0.00 | 0.12 | 0.02 | 68 | 1012.1 | |
| 20260507201600 | 53 | 0.0 | 0.0 | 0.00 | 0.12 | 0.02 | 71 | 1012.4 | |
| 20260507200109 | 54 | 0.0 | 0.0 | 0.00 | 0.12 | 0.02 | 70 | 1012.7 | |
| 20260507194557 | 54 | 0.0 | 0.0 | 0.00 | 0.12 | 0.02 | 71 | 1012.4 | |
| 20260507193056 | 54 | 0.0 | 0.0 | 0.00 | 0.12 | 0.02 | 71 | 1012.6 | |
| 20260507191558 | 54 | 0.0 | 0.0 | 0.00 | 0.12 | 0.02 | 70 | 1012.7 | |
| 20260507190057 | 53 | 0.0 | 0.0 | 0.00 | 0.12 | 0.02 | 73 | 1012.9 | |
| 20260507184603 | 53 | 0.0 | 0.0 | 0.00 | 0.12 | 0.02 | 70 | 1012.9 | |
| 20260507183051 | 53 | 0.0 | 0.0 | 0.00 | 0.12 | 0.02 | 70 | 1013.1 | |
| 20260507181600 | 53 | 0.0 | 0.0 | 0.00 | 0.12 | 0.02 | 72 | 1012.8 | |
| 20260507180057 | 54 | 0.0 | 0.0 | 0.00 | 0.12 | 0.02 | 72 | 1013.1 | |
| 20260507174556 | 54 | 0.0 | 0.0 | 0.00 | 0.12 | 0.02 | 72 | 1013.0 | |
| 20260507173056 | 54 | 0.0 | 0.0 | 0.00 | 0.12 | 0.02 | 72 | 1013.0 | |
| 20260507171601 | 53 | 0.0 | 0.0 | 0.00 | 0.12 | 0.02 | 72 | 1012.9 | |
| 20260507170059 | 53 | 0.0 | 0.0 | 0.00 | 0.12 | 0.02 | 71 | 1013.2 | |
| 20260507164557 | 52 | 0.0 | 0.0 | 0.00 | 0.16 | 0.02 | 76 | 1013.2 | |
| 20260507163057 | 51 | 0.0 | 0.0 | 0.00 | 0.16 | 0.02 | 75 | 1013.4 | |
| 20260507161556 | 51 | 0.0 | 0.0 | 0.00 | 0.16 | 0.02 | 80 | 1013.4 | |
| 20260507160055 | 50 | 0.0 | 0.0 | 0.00 | 0.16 | 0.02 | 80 | 1013.4 | |
| 20260507154604 | 49 | 0.0 | 0.0 | 0.00 | 0.17 | 0.02 | 82 | 1013.6 | |
| 20260507153101 | 48 | 0.0 | 0.0 | 0.00 | 0.17 | 0.02 | 84 | 1013.7 | |
| 20260507151556 | 48 | 0.0 | 0.0 | 0.00 | 0.17 | 0.02 | 88 | 1013.6 | |
| 20260507150055 | 47 | 0.0 | 0.0 | 0.00 | 0.17 | 0.02 | 89 | 1013.6 | |
| 20260507144552 | 47 | 0.0 | 0.0 | 0.00 | 0.18 | 0.02 | 91 | 1013.6 | |
| 20260507143053 | 46 | 0.0 | 0.0 | 0.00 | 0.18 | 0.02 | 90 | 1013.8 | |
| 20260507141552 | 46 | 0.0 | 0.0 | 0.00 | 0.18 | 0.02 | 92 | 1013.7 | |
| 20260507140054 | 46 | 0.0 | 0.0 | 0.00 | 0.18 | 0.02 | 92 | 1013.7 | |
| 20260507134555 | 45 | 0.0 | 0.0 | 0.00 | 0.22 | 0.02 | 93 | 1013.6 | |
| 20260507133057 | 45 | 0.0 | 0.0 | 0.00 | 0.22 | 0.02 | 94 | 1013.6 | |
| 20260507131601 | 46 | 0.0 | 0.0 | 0.01 | 0.22 | 0.02 | 95 | 1013.7 | |
| 20260507130107 | 46 | 0.0 | 0.0 | 0.01 | 0.22 | 0.02 | 95 | 1013.8 | |
| 20260507124556 | 46 | 0.0 | 0.0 | 0.01 | 0.29 | 0.02 | 95 | 1013.8 | |
| 20260507123053 | 46 | 0.0 | 0.0 | 0.01 | 0.29 | 0.02 | 95 | 1013.6 | |
| 20260507121605 | 46 | 0.0 | 0.0 | 0.00 | 0.28 | 0.01 | 95 | 1013.9 | |
| 20260507114604 | 46 | 0.0 | 0.0 | 0.00 | 0.28 | 0.01 | 95 | 1013.4 | |
| 20260507113055 | 46 | 0.0 | 0.0 | 0.00 | 0.28 | 0.01 | 95 | 1013.3 | |
| 20260507111559 | 48 | 0.0 | 0.0 | 0.00 | 0.28 | 0.01 | 96 | 1013.1 | |
| 20260507110057 | 48 | 0.0 | 0.0 | 0.00 | 0.28 | 0.01 | 96 | 1012.9 | |
| 20260507104553 | 48 | 0.0 | 0.0 | 0.00 | 0.33 | 0.01 | 96 | 1012.4 | |
| 20260507103054 | 48 | 0.0 | 0.0 | 0.00 | 0.33 | 0.01 | 96 | 1012.7 | |
| 20260507101604 | 48 | 0.0 | 0.0 | 0.00 | 0.33 | 0.01 | 96 | 1012.5 | |
| 20260507100053 | 48 | 0.0 | 0.0 | 0.00 | 0.33 | 0.01 | 96 | 1012.8 | |
| 20260507094557 | 48 | 0.0 | 0.0 | 0.00 | 0.35 | 0.01 | 96 | 1012.6 | |
| 20260507093055 | 48 | 0.0 | 0.0 | 0.00 | 0.35 | 0.01 | 96 | 1012.6 | |
| 20260507091559 | 48 | 0.0 | 0.0 | 0.00 | 0.35 | 0.01 | 96 | 1013.0 | |
| 20260507090056 | 48 | 0.0 | 0.0 | 0.00 | 0.35 | 0.01 | 96 | 1012.8 | |
| 20260507084555 | 48 | 0.0 | 0.0 | 0.01 | 0.35 | 0.01 | 95 | 1012.8 | |
| 20260507083056 | 49 | 0.0 | 0.0 | 0.01 | 0.35 | 0.01 | 95 | 1012.8 | |
| 20260507081602 | 49 | 0.0 | 0.0 | 0.01 | 0.35 | 0.01 | 95 | 1012.6 | |
| 20260507080053 | 50 | 0.0 | 0.0 | 0.01 | 0.35 | 0.01 | 95 | 1012.5 | |
| 20260507074605 | 50 | 0.0 | 0.0 | 0.00 | 0.34 | 0.00 | 95 | 1012.8 | |
| 20260507073052 | 51 | 0.0 | 0.0 | 0.00 | 0.34 | 0.00 | 95 | 1012.7 | |
| 20260507071551 | 51 | 0.0 | 0.0 | 0.00 | 0.34 | 0.00 | 95 | 1012.8 | |
| 20260507070058 | 51 | 0.0 | 0.0 | 0.00 | 0.34 | 0.00 | 95 | 1013.1 | |
| 20260507064554 | 51 | 0.0 | 0.0 | 0.00 | 0.34 | 0.00 | 95 | 1013.1 | |
| 20260507063052 | 51 | 0.0 | 0.0 | 0.00 | 0.34 | 0.00 | 95 | 1013.1 | |
| 20260507061606 | 51 | 0.0 | 0.0 | 0.00 | 0.34 | 0.00 | 95 | 1013.6 | |
| 20260507060054 | 51 | 0.0 | 0.0 | 0.00 | 0.34 | 0.00 | 95 | 1013.2 | |
| 20260507054633 | 51 | 0.0 | 0.0 | 0.00 | 0.34 | 0.00 | 94 | 1012.8 | |
| 20260507053055 | 51 | 0.0 | 0.0 | 0.00 | 0.34 | 0.00 | 95 | 1013.2 | |
| 20260507051553 | 52 | 0.0 | 0.0 | 0.00 | 0.34 | 0.00 | 94 | 1013.3 | |
| 20260507050058 | 53 | 0.0 | 0.0 | 0.00 | 0.34 | 0.00 | 95 | 1012.8 | |
| 20260507044601 | 53 | 0.0 | 0.0 | 0.00 | 0.34 | 0.00 | 95 | 1013.8 | |
| 20260507043055 | 54 | 0.0 | 0.0 | 0.00 | 0.34 | 0.00 | 95 | 1013.6 | |
| 20260507041601 | 54 | 0.0 | 0.0 | 0.00 | 0.34 | 0.00 | 95 | 1013.2 | |
| 20260507040055 | 54 | 0.0 | 0.0 | 0.00 | 0.34 | 0.00 | 95 | 1012.4 | |
| 20260507034600 | 54 | 0.0 | 0.0 | 0.00 | 0.34 | 0.34 | 95 | 1012.4 | |
| 20260507033101 | 55 | 0.0 | 0.0 | 0.00 | 0.34 | 0.34 | 95 | 1012.5 | |
| 20260507031605 | 55 | 0.0 | 0.0 | 0.01 | 0.34 | 0.34 | 95 | 1013.0 | |
| 20260507030056 | 55 | 0.0 | 0.0 | 0.02 | 0.34 | 0.34 | 95 | 1013.5 | |
| 20260507024556 | 55 | 0.0 | 0.0 | 0.02 | 0.34 | 0.34 | 95 | 1014.3 | |
| 20260507023102 | 55 | 0.0 | 0.0 | 0.02 | 0.34 | 0.34 | 95 | 1014.4 | |
| 20260507021551 | 55 | 0.0 | 0.0 | 0.01 | 0.33 | 0.33 | 94 | 1014.1 | |
| 20260507020057 | 56 | 0.0 | 0.0 | 0.01 | 0.32 | 0.32 | 94 | 1014.2 | |
| 20260507014602 | 56 | 0.0 | 0.0 | 0.01 | 0.32 | 0.32 | 94 | 1014.0 | |
| 20260507013053 | 56 | 0.0 | 0.0 | 0.03 | 0.32 | 0.32 | 93 | 1014.0 | |
| 20260507011555 | 58 | 0.0 | 0.0 | 0.04 | 0.31 | 0.31 | 93 | 1013.7 | |
| 20260507010052 | 59 | 0.0 | 0.0 | 0.07 | 0.31 | 0.31 | 93 | 1012.3 | |
| 20260507004550 | 61 | 0.0 | 0.0 | 0.07 | 0.31 | 0.31 | 92 | 1012.0 | |
| 20260507003054 | 61 | 0.0 | 0.0 | 0.05 | 0.29 | 0.29 | 93 | 1011.7 | |
| 20260507001605 | 62 | 0.0 | 0.0 | 0.03 | 0.27 | 0.27 | 92 | 1012.5 | |
| 20260507000057 | 63 | 0.0 | 0.0 | 0.00 | 0.24 | 0.24 | 89 | 1012.3 | |
| 20260506234554 | 64 | 0.0 | 0.0 | 0.00 | 0.24 | 0.24 | 86 | 1012.6 | |
| 20260506233119 | 64 | 0.0 | 0.0 | 0.00 | 0.24 | 0.24 | 83 | 1011.9 | |
| 20260506231551 | 64 | 0.0 | 0.0 | 0.00 | 0.24 | 0.24 | 83 | 1011.7 | |
| 20260506230053 | 64 | 0.0 | 0.0 | 0.00 | 0.24 | 0.24 | 83 | 1011.8 |